FW4012 Weather Reports


Display with metric or nautical units.
time (UTC)temp
F
wind
direction
speed
MPH
gust
MPH
rain 1hr
in
rain 24hr
in
rain mn
in
humidity
%
barometer
mb
20260904131242 89 173 1.0 9.0 0.00 0.00 0.00 47 1017.7
20260904130748 89 181 3.0 10.0 0.00 0.00 0.00 47 1017.8
20260904130240 89 163 5.0 10.0 0.00 0.00 0.00 47 1017.9
20260904125744 88 214 4.0 11.0 0.00 0.00 0.00 47 1017.9
20260904125223 88 155 7.0 11.0 0.00 0.00 0.00 47 1017.9
20260904124759 88 273 2.0 7.0 0.00 0.00 0.00 49 1018.1
20260904124230 88 178 4.0 7.0 0.00 0.00 0.00 48 1018.2
20260904123728 88 134 2.0 7.0 0.00 0.00 0.00 48 1018.1
20260904123235 88 185 3.0 8.0 0.00 0.00 0.00 51 1018.2
20260904122727 88 239 3.0 9.0 0.00 0.00 0.00 48 1018.2
20260904122249 88 240 3.0 9.0 0.00 0.00 0.00 48 1018.2
20260904121742 87 208 4.0 8.0 0.00 0.00 0.00 49 1018.3
20260904121247 87 193 3.0 9.0 0.00 0.00 0.00 50 1018.3
20260904120742 87 134 5.0 10.0 0.00 0.00 0.00 50 1018.3
20260904120225 87 194 4.0 11.0 0.00 0.00 0.00 51 1018.5
20260904115807 87 134 4.0 9.0 0.00 0.00 0.00 51 1018.5
20260904115234 87 150 4.0 9.0 0.00 0.00 0.00 52 1018.5
20260904114725 87 267 2.0 7.0 0.00 0.00 0.00 52 1018.5
20260904114248 87 190 2.0 7.0 0.00 0.00 0.00 52 1018.5
20260904113737 86 204 2.0 8.0 0.00 0.00 0.00 51 1018.5
20260904113230 86 161 2.0 8.0 0.00 0.00 0.00 49 1018.6
20260904112751 85 126 4.0 8.0 0.00 0.00 0.00 50 1018.6
20260904112238 86 116 4.0 8.0 0.00 0.00 0.00 48 1018.6
20260904111737 86 196 4.0 7.0 0.00 0.00 0.00 49 1018.6
20260904111229 86 211 3.0 6.0 0.00 0.00 0.00 52 1018.7
20260904110743 85 84 2.0 6.0 0.00 0.00 0.00 50 1018.7
20260904110252 85 152 2.0 8.0 0.00 0.00 0.00 51 1018.8
20260904105802 85 110 4.0 8.0 0.00 0.00 0.00 54 1018.7
20260904105305 85 119 3.0 7.0 0.00 0.00 0.00 53 1018.8
20260904104724 84 69 3.0 7.0 0.00 0.00 0.00 51 1018.9
20260904104238 84 102 3.0 7.0 0.00 0.00 0.00 51 1019.0
20260904103732 85 148 3.0 6.0 0.00 0.00 0.00 54 1019.0
20260904103301 85 150 3.0 6.0 0.00 0.00 0.00 52 1019.1
20260904102731 84 76 2.0 3.0 0.00 0.00 0.00 50 1019.1
20260904102228 84 179 0.0 5.0 0.00 0.00 0.00 49 1019.3
20260904101735 84 217 3.0 5.0 0.00 0.00 0.00 51 1019.3
20260904101224 84 259 2.0 7.0 0.00 0.00 0.00 50 1019.3
20260904100747 84 153 3.0 7.0 0.00 0.00 0.00 50 1019.4
20260904100234 85 140 4.0 7.0 0.00 0.00 0.00 48 1019.4
20260904095728 84 207 3.0 5.0 0.00 0.00 0.00 50 1019.6
20260904095229 83 5 2.0 7.0 0.00 0.00 0.00 51 1019.5
20260904094735 84 113 4.0 7.0 0.00 0.00 0.00 48 1019.6
20260904094226 85 148 3.0 5.0 0.00 0.00 0.00 50 1019.6
20260904093750 84 196 3.0 5.0 0.00 0.00 0.00 53 1019.7
20260904093258 83 154 4.0 6.0 0.00 0.00 0.00 53 1019.8
20260904092725 83 109 2.0 4.0 0.00 0.00 0.00 51 1019.8
20260904092245 83 338 0.0 3.0 0.00 0.00 0.00 50 1019.9
20260904091723 82 338 1.0 4.0 0.00 0.00 0.00 54 1020.0
20260904091238 81 47 1.0 4.0 0.00 0.00 0.00 50 1019.8
20260904090727 81 213 2.0 4.0 0.00 0.00 0.00 51 1019.8
20260904090247 81 172 1.0 4.0 0.00 0.00 0.00 51 1019.7
20260904085739 80 110 2.0 6.0 0.00 0.00 0.00 51 1019.8
20260904085239 80 114 3.0 6.0 0.00 0.00 0.00 51 1019.8
20260904084738 80 5 1.0 3.0 0.00 0.00 0.00 51 1019.7
20260904084237 80 78 1.0 4.0 0.00 0.00 0.00 52 1019.7
20260904083745 80 28 2.0 4.0 0.00 0.00 0.00 52 1019.7
20260904083242 80 121 3.0 4.0 0.00 0.00 0.00 53 1019.6
20260904082743 79 43 2.0 3.0 0.00 0.00 0.00 55 1019.6
20260904082235 79 270 1.0 3.0 0.00 0.00 0.00 57 1019.6
20260904081731 78 270 1.0 3.0 0.00 0.00 0.00 57 1019.7
20260904081233 78 271 1.0 3.0 0.00 0.00 0.00 57 1019.6
20260904080727 78 19 2.0 3.0 0.00 0.00 0.00 59 1019.5
20260904080307 77 316 1.0 3.0 0.00 0.00 0.00 59 1019.5
20260904075734 77 316 2.0 3.0 0.00 0.00 0.00 60 1019.5
20260904075243 77 316 1.0 3.0 0.00 0.00 0.00 61 1019.5
20260904074723 76 316 1.0 5.0 0.00 0.00 0.00 62 1019.6
20260904074242 76 324 3.0 4.0 0.00 0.00 0.00 63 1019.6
20260904073747 76 326 1.0 4.0 0.00 0.00 0.00 62 1019.6
20260904073237 76 326 2.0 5.0 0.00 0.00 0.00 63 1019.5
20260904072746 75 323 4.0 5.0 0.00 0.00 0.00 66 1019.6
20260904072236 75 350 2.0 3.0 0.00 0.00 0.00 67 1019.5
20260904071727 75 348 1.0 3.0 0.00 0.00 0.00 67 1019.4
20260904071247 74 18 2.0 3.0 0.00 0.00 0.00 69 1019.3
20260904070727 74 24 2.0 4.0 0.00 0.00 0.00 67 1019.3
20260904070228 73 318 1.0 3.0 0.00 0.00 0.00 72 1019.2
20260904065750 73 306 0.0 2.0 0.00 0.00 0.00 74 1019.3
20260904065240 72 306 1.0 3.0 0.00 0.00 0.00 74 1019.3
20260904064725 72 306 1.0 4.0 0.00 0.00 0.00 74 1019.4
20260904064230 71 301 2.0 4.0 0.00 0.00 0.00 75 1019.3
20260904063740 71 333 3.0 4.0 0.00 0.00 0.00 77 1019.2
20260904063247 70 319 2.0 3.0 0.00 0.00 0.00 79 1019.2
20260904062810 70 319 2.0 3.0 0.00 0.00 0.00 77 1019.1
20260904062240 70 319 0.0 2.0 0.00 0.00 0.00 78 1019.2
20260904061725 69 319 1.0 4.0 0.00 0.00 0.00 79 1019.1
20260904061234 68 332 2.0 5.0 0.00 0.00 0.00 81 1019.0
20260904060733 67 326 3.0 4.0 0.00 0.00 0.00 82 1019.0
20260904060259 66 329 3.0 4.0 0.00 0.00 0.00 84 1019.1
20260904055746 65 328 1.0 3.0 0.00 0.00 0.00 84 1019.1
20260904055242 65 328 1.0 2.0 0.00 0.00 0.00 85 1019.1
20260904054747 64 328 0.0 4.0 0.00 0.00 0.00 86 1019.0
20260904054241 63 328 2.0 4.0 0.00 0.00 0.00 86 1019.1
20260904053740 63 325 3.0 3.0 0.00 0.00 0.00 87 1019.1
20260904053250 62 311 1.0 3.0 0.00 0.00 0.00 88 1019.0
20260904052739 62 311 1.0 3.0 0.00 0.00 0.00 88 1019.1
20260904052248 62 315 2.0 4.0 0.00 0.00 0.00 88 1019.0
20260904051723 62 323 2.0 3.0 0.00 0.00 0.00 88 1018.8
20260904051239 61 323 2.0 3.0 0.00 0.00 0.00 88 1018.9
20260904050737 61 323 2.0 3.0 0.00 0.00 0.00 89 1018.9
20260904050232 61 323 1.0 3.0 0.00 0.00 0.00 88 1018.8
20260904045740 61 323 1.0 3.0 0.00 0.00 0.00 89 1018.8
20260904045240 61 323 1.0 3.0 0.00 0.00 0.00 88 1018.8
20260904044746 61 323 1.0 2.0 0.00 0.00 0.00 88 1018.6
20260904044226 61 323 1.0 2.0 0.00 0.00 0.00 88 1018.7
20260904043734 61 323 0.0 1.0 0.00 0.00 0.00 88 1018.6
20260904043224 61 323 0.0 1.0 0.00 0.00 0.00 88 1018.6
20260904042730 61 323 0.0 4.0 0.00 0.00 0.00 88 1018.6
20260904042223 61 323 2.0 4.0 0.00 0.00 0.00 88 1018.7
20260904041742 61 323 2.0 3.0 0.00 0.00 0.00 88 1018.7
20260904041237 61 319 1.0 4.0 0.00 0.00 0.00 88 1018.7
20260904040729 61 319 2.0 4.0 0.00 0.00 0.00 89 1018.7
20260904040236 61 323 3.0 4.0 0.00 0.00 0.00 89 1018.7
20260904035735 61 329 0.0 0.0 0.00 0.00 0.00 89 1018.7
20260904035235 61 329 0.0 0.0 0.00 0.00 0.00 89 1018.7
20260904034734 61 329 0.0 0.0 0.00 0.00 0.00 89 1018.7
20260904034302 61 329 0.0 0.0 0.00 0.00 0.00 89 1018.8
20260904033729 61 329 0.0 0.0 0.00 0.00 0.00 89 1018.8
20260904033309 61 329 0.0 0.0 0.00 0.00 0.00 89 1018.8
20260904032740 61 329 0.0 0.0 0.00 0.00 0.00 88 1018.9
20260904032250 61 329 0.0 0.0 0.00 0.00 0.00 88 1018.8
20260904031736 61 329 0.0 0.0 0.00 0.00 0.00 88 1018.9
20260904031223 61 329 0.0 0.0 0.00 0.00 0.00 88 1018.9
20260904030744 61 329 0.0 0.0 0.00 0.00 0.00 88 1019.0
20260904030251 61 329 0.0 0.0 0.00 0.00 0.00 88 1018.9
20260904025740 61 329 0.0 1.0 0.00 0.00 0.00 88 1018.9
20260904025251 61 329 0.0 1.0 0.00 0.00 0.00 88 1018.9
20260904024801 61 329 0.0 1.0 0.00 0.00 0.00 88 1018.9
20260904024250 61 329 0.0 1.0 0.00 0.00 0.00 88 1018.9
20260904023739 62 329 0.0 1.0 0.00 0.00 0.00 88 1018.9
20260904023246 62 329 0.0 1.0 0.00 0.00 0.00 88 1018.9
20260904022737 62 329 0.0 0.0 0.00 0.00 0.00 87 1018.9
20260904022229 62 329 0.0 1.0 0.00 0.00 0.00 87 1018.9
20260904021730 62 329 0.0 1.0 0.00 0.00 0.00 87 1018.9
20260904021244 62 329 0.0 1.0 0.00 0.00 0.00 87 1018.8
20260904020737 62 329 0.0 1.0 0.00 0.00 0.00 87 1018.7
20260904020237 62 329 0.0 2.0 0.00 0.00 0.00 87 1018.7
20260904015749 62 329 0.0 3.0 0.00 0.00 0.00 87 1018.6
20260904015240 62 329 1.0 3.0 0.00 0.00 0.00 87 1018.7
20260904014739 62 329 1.0 2.0 0.00 0.00 0.00 87 1018.6
20260904014239 62 329 0.0 0.0 0.00 0.00 0.00 87 1018.6
20260904013745 62 329 0.0 0.0 0.00 0.00 0.00 87 1018.5
20260904013240 63 329 0.0 0.0 0.00 0.00 0.00 87 1018.6
20260904012725 63 329 0.0 0.0 0.00 0.00 0.00 87 1018.6
20260904012235 63 329 0.0 0.0 0.00 0.00 0.00 87 1018.6
20260904011723 63 329 0.0 0.0 0.00 0.00 0.00 87 1018.6
20260904011311 63 329 0.0 0.0 0.00 0.00 0.00 87 1018.6
20260904010731 63 330 0.0 0.0 0.00 0.00 0.00 87 1018.6
20260904010223 63 330 0.0 0.0 0.00 0.00 0.00 87 1018.7
20260904005746 63 330 0.0 0.0 0.00 0.00 0.00 86 1018.6
20260904005306 63 330 0.0 0.0 0.00 0.00 0.00 86 1018.6
20260904004723 63 330 0.0 0.0 0.00 0.00 0.00 86 1018.7
20260904004242 64 325 0.0 0.0 0.00 0.00 0.00 86 1018.7
20260904003741 64 326 0.0 0.0 0.00 0.00 0.00 86 1018.6
20260904003250 64 325 0.0 0.0 0.00 0.00 0.00 86 1018.6
20260904002738 64 326 0.0 0.0 0.00 0.00 0.00 86 1018.8
20260904002238 64 326 0.0 0.0 0.00 0.00 0.00 86 1018.7
20260904001747 64 325 0.0 0.0 0.00 0.00 0.00 86 1018.8
20260904001253 64 326 0.0 0.0 0.00 0.00 0.00 86 1018.9
20260904000724 64 325 0.0 0.0 0.00 0.00 0.00 86 1018.9
20260904000226 64 326 0.0 0.0 0.00 0.00 0.00 86 1018.8
20260903235748 64 325 0.0 0.0 0.00 0.00 0.00 86 1018.9
20260903235250 64 325 0.0 0.0 0.00 0.00 0.00 86 1018.9
20260903234724 64 325 0.0 0.0 0.00 0.00 0.00 86 1019.0
20260903234236 64 325 0.0 0.0 0.00 0.00 0.00 85 1019.1
20260903233724 64 325 0.0 0.0 0.00 0.00 0.00 85 1019.1
20260903233237 64 325 0.0 0.0 0.00 0.00 0.00 85 1019.1
20260903232743 65 325 0.0 0.0 0.00 0.00 0.00 85 1019.1
20260903232237 65 325 0.0 1.0 0.00 0.00 0.00 85 1019.1
20260903231743 65 325 0.0 2.0 0.00 0.00 0.00 85 1019.0
20260903231231 65 325 0.0 2.0 0.00 0.00 0.00 85 1018.9
20260903230725 65 325 0.0 2.0 0.00 0.00 0.00 85 1019.0
20260903230312 65 325 0.0 2.0 0.00 0.00 0.00 85 1018.9
20260903225740 65 325 1.0 3.0 0.00 0.00 0.00 85 1019.0
20260903225247 65 325 1.0 3.0 0.00 0.00 0.00 85 1018.9
20260903224736 65 326 2.0 3.0 0.00 0.00 0.00 84 1018.9
20260903224226 65 326 2.0 3.0 0.00 0.00 0.00 84 1018.9
20260903223805 65 325 0.0 0.0 0.00 0.00 0.00 84 1018.8
20260903223227 65 325 0.0 2.0 0.00 0.00 0.00 84 1018.8
20260903222737 65 325 0.0 2.0 0.00 0.00 0.00 84 1018.9
20260903222244 66 325 1.0 2.0 0.00 0.00 0.00 84 1018.8
20260903221724 66 325 0.0 1.0 0.00 0.00 0.00 84 1018.9
20260903221237 66 326 0.0 2.0 0.00 0.00 0.00 83 1019.1
20260903220738 66 326 1.0 2.0 0.00 0.00 0.00 83 1019.0
20260903220233 66 290 0.0 3.0 0.00 0.00 0.00 83 1019.1
20260903215730 66 290 1.0 3.0 0.00 0.00 0.00 83 1019.0
20260903215241 66 304 1.0 3.0 0.00 0.00 0.00 83 1019.0
20260903214750 66 329 0.0 0.0 0.00 0.00 0.00 83 1019.1
20260903214239 66 329 0.0 0.0 0.00 0.00 0.00 83 1019.0
20260903213727 66 329 0.0 0.0 0.00 0.00 0.00 82 1018.9
20260903213250 66 329 0.0 0.0 0.00 0.00 0.00 82 1018.9
20260903212723 67 329 0.0 1.0 0.00 0.00 0.00 82 1018.9
20260903212241 67 329 0.0 2.0 0.00 0.00 0.00 82 1018.9
20260903211750 67 329 0.0 3.0 0.00 0.00 0.00 82 1018.9
20260903211225 67 329 2.0 3.0 0.00 0.00 0.00 82 1018.9
20260903210758 67 329 2.0 3.0 0.00 0.00 0.00 82 1018.9
20260903210230 67 324 2.0 3.0 0.00 0.00 0.00 82 1018.9
20260903205800 67 281 0.0 0.0 0.00 0.00 0.00 82 1018.8
20260903205244 67 281 0.0 0.0 0.00 0.00 0.00 82 1018.8
20260903204725 67 281 0.0 0.0 0.00 0.00 0.00 82 1018.8
20260903204238 67 281 0.0 0.0 0.00 0.00 0.00 81 1018.7
20260903203751 67 281 0.0 0.0 0.00 0.00 0.00 81 1018.7
20260903203233 67 281 0.0 0.0 0.00 0.00 0.00 81 1018.7
20260903202725 67 281 0.0 0.0 0.00 0.00 0.00 80 1018.7
20260903202247 68 281 0.0 0.0 0.00 0.00 0.00 80 1018.7
20260903201723 68 281 0.0 0.0 0.00 0.00 0.00 80 1018.7
20260903201242 68 281 0.0 0.0 0.00 0.00 0.00 80 1018.6
20260903200759 68 281 0.0 0.0 0.00 0.00 0.00 80 1018.6
20260903200228 68 281 0.0 2.0 0.00 0.00 0.00 80 1018.5
20260903195740 68 281 0.0 2.0 0.00 0.00 0.00 79 1018.5
20260903195244 68 281 0.0 1.0 0.00 0.00 0.00 79 1018.5
20260903194800 69 281 0.0 0.0 0.00 0.00 0.00 79 1018.4
20260903194229 69 281 0.0 0.0 0.00 0.00 0.00 79 1018.4
20260903193739 69 281 0.0 0.0 0.00 0.00 0.00 79 1018.4
20260903193239 69 281 0.0 0.0 0.00 0.00 0.00 79 1018.3
20260903192753 70 281 0.0 0.0 0.00 0.00 0.00 78 1018.4
20260903192243 70 281 0.0 2.0 0.00 0.00 0.00 78 1018.4
20260903191743 70 281 1.0 2.0 0.00 0.00 0.00 77 1018.3
20260903191255 70 246 0.0 0.0 0.00 0.00 0.00 77 1018.2
20260903190744 71 246 0.0 0.0 0.00 0.00 0.00 77 1018.2
20260903190225 71 246 0.0 0.0 0.00 0.00 0.00 77 1018.0
20260903185740 71 246 0.0 0.0 0.00 0.00 0.00 77 1018.1
20260903185251 72 246 0.0 0.0 0.00 0.00 0.00 76 1018.1
20260903184800 72 246 0.0 0.0 0.00 0.00 0.00 76 1017.9
20260903184230 72 246 0.0 0.0 0.00 0.00 0.00 75 1018.0
20260903183749 73 246 0.0 0.0 0.00 0.00 0.00 75 1017.9
20260903183239 73 246 0.0 0.0 0.00 0.00 0.00 75 1017.9
20260903182725 74 246 0.0 0.0 0.00 0.00 0.00 74 1017.8
20260903182250 75 246 0.0 0.0 0.00 0.00 0.00 73 1017.7
20260903181804 75 246 0.0 0.0 0.00 0.00 0.00 72 1017.8
20260903181248 76 246 0.0 0.0 0.00 0.00 0.00 71 1017.7
20260903180737 76 246 0.0 0.0 0.00 0.00 0.00 70 1017.6
20260903180236 77 246 0.0 0.0 0.00 0.00 0.00 69 1017.6
20260903175727 78 246 0.0 0.0 0.00 0.00 0.00 66 1017.5
20260903175248 79 246 0.0 0.0 0.00 0.00 0.00 63 1017.6
20260903174740 80 246 0.0 0.0 0.00 0.00 0.00 61 1017.5
20260903174251 80 246 0.0 0.0 0.00 0.00 0.00 59 1017.5
20260903173738 81 246 0.0 1.0 0.00 0.00 0.00 59 1017.4
20260903173248 82 246 0.0 1.0 0.00 0.00 0.00 59 1017.4
20260903172743 82 246 0.0 0.0 0.00 0.00 0.00 60 1017.4
20260903172249 83 246 0.0 1.0 0.00 0.00 0.00 56 1017.4
20260903171741 83 246 0.0 2.0 0.00 0.00 0.00 54 1017.4
20260903171246 83 246 1.0 2.0 0.00 0.00 0.00 53 1017.4
20260903170752 84 246 1.0 2.0 0.00 0.00 0.00 51 1017.5
20260903170240 85 246 1.0 3.0 0.00 0.00 0.00 50 1017.4
20260903165739 85 246 2.0 3.0 0.00 0.00 0.00 50 1017.4
20260903165227 86 246 0.0 2.0 0.00 0.00 0.00 49 1017.4
20260903164739 86 246 1.0 3.0 0.00 0.00 0.00 48 1017.3
20260903164237 87 244 0.0 5.0 0.00 0.00 0.00 46 1017.4
20260903163800 87 242 3.0 7.0 0.00 0.00 0.00 44 1017.3
20260903163228 88 246 3.0 7.0 0.00 0.00 0.00 43 1017.4
20260903162811 88 227 3.0 5.0 0.00 0.00 0.00 45 1017.3
20260903162225 88 246 2.0 7.0 0.00 0.00 0.00 43 1017.4
20260903161742 88 281 1.0 7.0 0.00 0.00 0.00 44 1017.3
20260903161239 88 254 3.0 6.0 0.00 0.00 0.00 45 1017.4
20260903160738 88 277 3.0 6.0 0.00 0.00 0.00 46 1017.3
20260903160241 88 208 3.0 8.0 0.00 0.00 0.00 44 1017.4
20260903155743 88 259 4.0 8.0 0.00 0.00 0.00 43 1017.5
20260903155224 88 228 2.0 8.0 0.00 0.00 0.00 45 1017.3
20260903154754 88 243 2.0 7.0 0.00 0.00 0.00 46 1017.2
20260903154227 88 219 4.0 7.0 0.00 0.00 0.00 44 1017.4
20260903153748 88 259 3.0 8.0 0.00 0.00 0.00 44 1017.4
20260903153224 88 283 5.0 7.0 0.00 0.00 0.00 45 1017.4
20260903152800 88 224 3.0 7.0 0.00 0.00 0.00 44 1017.4
20260903152248 88 314 2.0 5.0 0.00 0.00 0.00 47 1017.4
20260903151733 87 226 3.0 7.0 0.00 0.00 0.00 46 1017.3
20260903151227 87 220 3.0 7.0 0.00 0.00 0.00 46 1017.5
20260903150752 87 251 3.0 6.0 0.00 0.00 0.00 45 1017.4
20260903150240 88 227 4.0 6.0 0.00 0.00 0.00 46 1017.6
20260903145728 88 275 4.0 8.0 0.00 0.00 0.00 44 1017.6
20260903145237 87 254 1.0 8.0 0.00 0.00 0.00 47 1017.6
20260903144736 88 226 3.0 7.0 0.00 0.00 0.00 45 1017.6
20260903144232 88 243 3.0 8.0 0.00 0.00 0.00 45 1017.6
20260903143810 88 247 4.0 7.0 0.00 0.00 0.00 43 1017.7
20260903143233 88 254 2.0 7.0 0.00 0.00 0.00 42 1017.7
20260903142732 88 244 2.0 7.0 0.00 0.00 0.00 43 1017.6
20260903142231 88 199 4.0 7.0 0.00 0.00 0.00 42 1017.6
20260903141730 87 187 3.0 5.0 0.00 0.00 0.00 42 1017.8
20260903141233 87 122 2.0 6.0 0.00 0.00 0.00 41 1017.8
20260903140724 87 220 1.0 7.0 0.00 0.00 0.00 41 1017.9
20260903140240 87 214 2.0 7.0 0.00 0.00 0.00 41 1017.9
20260903135750 88 207 4.0 5.0 0.00 0.00 0.00 39 1018.0
20260903135241 87 225 3.0 7.0 0.00 0.00 0.00 39 1018.1
20260903134751 87 255 4.0 7.0 0.00 0.00 0.00 43 1018.1
20260903134242 87 225 4.0 7.0 0.00 0.00 0.00 44 1018.0
20260903133751 86 241 2.0 7.0 0.00 0.00 0.00 45 1018.0
20260903133238 86 253 2.0 5.0 0.00 0.00 0.00 44 1018.1
20260903132748 86 266 2.0 5.0 0.00 0.00 0.00 46 1018.1
20260903132240 87 258 2.0 5.0 0.00 0.00 0.00 44 1018.2
20260903131748 87 260 1.0 5.0 0.00 0.00 0.00 45 1018.1